Regional Weather Roundup
Issued by NWS Sterling, VA

Home | Current Version | Previous Version | Graphics & Text | Print | Product List | Glossary On
Versions: 1 2 3 4 5 6 7 8 9 10 11 12 13 14 15 16 17 18 19 20 21 22 23 24 25 26 27
000
ASUS41 KLWX 281910
RWRLWX

REGIONAL WEATHER ROUNDUP
NATIONAL WEATHER SERVICE BALTIMORE MD/WASHINGTON DC
200 PM EST TUE FEB 28 2017

Note: "FAIR" indicates few or no clouds below 12,000 feet
with no significant weather and/or obstructions to visibility.
 TC=TEMPERATURE CELSIUS

 * =Non NWS site. Station does not report precipitation (e.g. rain,
    snow, etc.), thunder, or fog.

DCZ001-MDZ009-015-VAZ040>042-051-053>054-282000-
WASHINGTON METRO

CITY           SKY/WX    TMP DP  RH WIND       PRES   REMARKS
WASHINGTON NAT CLOUDY    67  49  52 S7        30.17F
DULLES         CLOUDY    67  43  41 SE9       30.15F
ANDREWS AFB    CLOUDY    67  47  47 S12       30.15F
FT BELVOIR     MOSUNNY   67  47  47 SE7       30.16F
QUANTICO       CLOUDY    62  49  62 S9        30.17F
COLLEGE PARK*  CLOUDY    66  45  45 SW3       30.15F
LEESBURG*      PTSUNNY   68  45  42 MISG      30.16F
MANASSAS*      CLOUDY    67  46  47 S9        30.15F
GAITHERSBURG*  CLOUDY    64  41  42 SE7       30.19F

$$

MDZ006>007-011-014-282000-
BALTIMORE METRO

CITY           SKY/WX    TMP DP  RH WIND       PRES   REMARKS
BWI AIRPORT    CLOUDY    63  47  55 E9        30.17F
MD SCIENCE CTR   N/A     60  44  55 MISG      30.19F
MARTIN STATE   PTSUNNY   59  48  67 SE5       30.20F
ANNAPOLIS      CLOUDY    54  47  77 SE6       30.17F
FORT MEADE*    MOSUNNY   66  46  48 SE8       30.18F

$$

MDZ012-015-019>023-282000-
MARYLAND EASTERN SHORE

CITY           SKY/WX    TMP DP  RH WIND       PRES   REMARKS
OCEAN CITY     MOSUNNY   58  50  75 VRB7      30.23F
SALISBURY      PTSUNNY   70  55  59 S12       30.19F
BAY BRIDGE AP* CLOUDY    64  50  59 S9        30.18F
CAMBRIDGE*     SUNNY     64  52  63 SE12      30.19F
EASTON*        CLOUDY    68  50  52 S6        30.22F

$$

MDZ017>025-282000-
SOUTHERN MARYLAND

CITY           SKY/WX    TMP DP  RH WIND       PRES   REMARKS
PATUXENT RIVER CLOUDY    57  52  83 SE9       30.19F
ST INIGOES     CLOUDY    63  52  67 E9        30.19F
LEONARDTOWN*   PTSUNNY   63  50  63 CALM      30.19F

$$

MDZ003>005-282000-
NORTH CENTRAL MARYLAND

CITY           SKY/WX    TMP DP  RH WIND       PRES   REMARKS
FREDERICK*     PTSUNNY   64  41  42 S6        30.18F
HAGERSTOWN APT CLOUDY    63  37  38 S7        30.14F
WESTMINSTER*   PTSUNNY   66  43  42 S9        30.16F

$$

MDZ501>502-282000-
WESTERN MARYLAND

CITY           SKY/WX    TMP DP  RH WIND       PRES   REMARKS
OAKLAND*       CLOUDY    45  37  76 S12G18    30.13F
CUMBERLAND*    PTSUNNY   50  43  76 NW3       30.19F

$$

VAZ025>031-282000-
SHENANDOAH VALLEY

CITY           SKY/WX    TMP DP  RH WIND       PRES   REMARKS
WINCHESTER*    PTSUNNY   63  36  36 S7        30.13F
FRONT ROYAL*   CLOUDY    63  37  39 CALM      30.13F
LURAY*         CLOUDY    63  41  45 SW5       30.14F
NEW MARKET*    CLOUDY    60  36  40 W5        30.15F
STAUNTON*      CLOUDY    63  39  42 S7        30.16F
WAYNESBORO*    CLOUDY    64  36  35 SE8G16    30.15F

$$

WVZ021-048>050-054>055-282000-
EASTERN WEST VIRGINIA PANHANDLE

CITY           SKY/WX    TMP DP  RH WIND       PRES   REMARKS
MARTINSBURG    CLOUDY    63  37  38 SE6       30.13F
PETERSBURG*    RAIN      56  47  73 CALM      30.16S

$$

VAZ036>039-050-282000-
CENTRAL FOOTHILLS

CITY           SKY/WX    TMP DP  RH WIND       PRES   REMARKS
CHARLOTTESVILL CLOUDY    67  42  40 SE9       30.15F
CULPEPER*      PTSUNNY   67  46  46 S7        30.16F
ORANGE*        CLOUDY    68  45  42 S8        30.17F
GORDONSVILLE*  MOSUNNY   68  46  45 S10       30.15F
WARRENTON*     CLOUDY    68  40  36 S7        30.15F

$$

VAZ055>057-282000-
NORTH AND CENTRAL PIEDMONT

CITY           SKY/WX    TMP DP  RH WIND       PRES   REMARKS
FREDERICKSBRG* CLOUDY    69  49  49 S9        30.15F
STAFFORD*      PTSUNNY   66  47  49 S9        30.20F

$$

NCZ024-NYZ072-PAZ021-071-VAZ022-071-282000-
OTHER REGIONAL OBSERVATIONS

CITY           SKY/WX    TMP DP  RH WIND       PRES   REMARKS
NEW YORK CITY  MOSUNNY   57  43  59 E8        30.25F
PHILADELPHIA   CLOUDY    65  46  50 S7        30.19F
PITTSBURGH     CLOUDY    56  41  57 S14G20    30.03F
ROANOKE        CLOUDY    65  41  41 E7        30.17F
RICHMOND       CLOUDY    71  54  54 SE12      30.18F
RALEIGH        CLOUDY    76  55  48 S13G20    30.20F

$$

ANZ530>537-282000-
MARINE OBSERVATIONS

STATION/POSITION TIME  TEMP    WIND        PRES
                       AIR SEA DIR/SP/G
                 (UTC) (F)     (DEG/KT/KT) (MB)
THOMAS PT LIGHT  1900   55 45  160/  5/  7   N/A
BALT KEY BRIDGE  1848   54     110/  9/  9 1021.9F
COVE POINT       1848   51     190/ 12/ 12 1023.0F
LEWISETTA        1848   51 49  100/  5/  6 1022.3F
SOLOMONS ISLAND  1848   51 46  100/  8/  9   N/A
PINEY POINT      1848          140/ 11/ 11   N/A

$$





USA.gov is the U.S. government's official web portal to all federal, state and local government web resources and services.